Briefing drone pour Villars

Rechercher une autre localisation

Conditions de vol :


Nous sommes le : Mercredi 30 septembre 2020
Il est 20:56 UTC (22:56 LT)

Lever de soleil : 05:13 UTC (07:13 LT)
Coucher de soleil : 17:51 UTC (19:51 LT)

Météo

L'essentiel des conditions de vol

VIGILANCE MÉTÉO FRANCE - Loire (42)
Pas de vigilances particulieres
METAR de LFMH
LFMH 302030Z AUTO VRB02KT CAVOK 10/09 Q1012

Date d'émission: 30/09/2020
Heure d'émission: 20:30 UTC
Vent: Variable 2 KT (4 km/h)
Visibilité horizontale: > 10 km
Plafond : Plafond et visibilité OK (CAVOK)
Température: 10 °C
Point de rosée: 9 °C
Humidité: 94%
Pression (QNH): 1012 hPa
TAF de LFMH
LFMH 301901Z 3019/0115 CNL

Conditions prévues :

Heure d'émission : Bulletin éffectué le 30 à 19:00 UTC
Prévision : Valide du 30 a 19:00 UTC au 01 a 15:00 UTC
Nuages : à 0ft (0 m)
WEBCAM POUR VILLARS

Réglementation

Voler en sécurité

CARTES AERONAUTIQUE 1/500.000
CARTES VAC (LFMH)
SUP AIP




Chargement des AIP...
NOTAM (VILLARS + Terrain à proximité / FIR )




Chargement des NOTAMS...
CONTACT PREFECTURE 42


Avertissement : Les données mises à disposition sont indicatives. Oxygène Drone ne pourra être tenu responsable de dégâts causés aux biens et aux personnes.